QPF
0.00 0.00 0.00 0.00 0.00 0.00 0.00 0.00 0.00 0.00 0.00 0.00 0.00 0.00 0.00 0.00 0.00 0.00 0.00 0.00 0.00 0.00 0.00 0.00 0.00 0.00 0.00 0.00 0.00 0.00 0.00 0.00 0.00 0.00 0.00 0.00 0.00 0.00 0.00 0.00 0.00 0.00 0.00
0.00 0.00 0.00 0.00 0.00 0.00 0.00 0.00 0.00 0.00 0.00 0.00 0.00 0.00 0.00 0.00 0.00 0.00 0.00 0.00 0.00 0.00 0.00 0.00 0.00 0.00 0.00 0.00 0.00 0.00 0.00 0.00 0.00 0.00 0.00 0.00 0.00 0.00 0.00 0.00 0.00 0.00 0.00
0.00 0.00 0.00 0.00 0.00 0.00 0.00 0.00 0.00 0.00 0.00 0.00 0.00 0.00 0.00 0.00 0.00 0.00 0.00 0.00 0.00 0.00 0.00 0.00 0.00 0.00 0.00 0.00 0.00 0.00 0.00 0.00 0.00 0.00 0.00 0.00 0.00 0.00 0.00 0.00 0.00 0.00 0.00
0.00 0.00 0.00 0.00 0.00 0.00 0.00 0.00 0.00 0.00 0.00 0.00 0.00 0.00 0.00 0.00 0.00 0.00 0.00 0.00 0.00 0.00 0.00 0.00 0.00 0.00 0.00 0.00 0.00 0.00 0.00 0.00 0.00 0.00 0.00 0.00 0.00 0.00 0.00 0.00 0.00 0.00 0.00
0.00 0.00 0.00 0.00 0.00 0.00 0.00 0.00 0.00 0.00 0.00 0.00 0.00 0.00 0.00 0.00 0.00 0.00 0.00 0.00 0.00 0.00 0.00 0.00 0.00 0.00 0.00 0.00 0.00 0.00 0.00 0.00 0.00 0.00 0.00 0.00 0.00 0.00 0.00 0.00 0.00 0.00 0.00
0.00 0.00 0.00 0.00 0.00 0.00 0.00 0.00 0.00 0.00 0.00 0.00 0.00 0.00 0.00 0.00 0.00 0.00 0.00 0.00 0.00 0.00 0.00 0.00 0.00 0.00 0.00 0.00 0.00 0.00 0.00 0.00 0.00 0.00 0.00 0.00 0.00 0.00 0.00 0.00 0.00 0.00 0.00
0.00 0.00 0.00 0.00 0.00 0.00 0.00 0.00 0.00 0.00 0.00 0.00 0.00 0.00 0.00 0.00 0.00 0.00 0.00 0.00 0.00 0.00 0.00 0.00 0.00 0.00 0.00 0.00 0.00 0.00 0.00 0.00 0.00 0.00 0.00 0.00 0.00 0.00 0.00 0.00 0.00 0.00 0.00
0.00 0.00 0.00 0.00 0.00 0.00 0.00 0.00 0.00 0.00 0.00 0.00 0.00 0.00 0.00 0.00 0.00 0.00 0.00 0.00 0.00 0.00 0.00 0.00 0.00 0.00 0.00 0.00 0.00 0.00 0.00 0.00 0.00 0.00 0.00 0.00 0.00 0.00 0.00 0.01 0.02 0.02 0.01
0.00 0.00 0.00 0.00 0.00 0.00 0.00 0.00 0.00 0.00 0.00 0.00 0.00 0.00 0.00 0.00 0.00 0.00 0.00 0.00 0.00 0.00 0.00 0.00 0.00 0.00 0.00 0.00 0.00 0.00 0.00 0.00 0.00 0.00 0.00 0.00 0.00 0.00 0.00 0.00 0.00 0.00 0.00
0.00 0.00 0.00 0.00 0.00 0.00 0.00 0.00 0.00 0.00 0.00 0.00 0.00 0.00 0.00 0.00 0.00 0.00 0.00 0.00 0.00 0.00 0.00 0.00 0.00 0.00 0.00 0.00 0.00 0.00 0.00 0.00 0.00 0.00 0.00 0.00 0.00 0.00 0.00 0.00 0.00 0.00 0.00
0.00 0.00 0.00 0.00 0.00 0.00 0.00 0.00 0.00 0.00 0.00 0.00 0.00 0.00 0.00 0.00 0.00 0.00 0.00 0.00 0.00 0.00 0.00 0.00 0.00 0.00 0.00 0.00 0.00 0.00 0.00 0.00 0.00 0.00 0.00 0.00 0.00 0.00 0.00 0.00 0.00 0.00 0.00
0.00 0.00 0.00 0.00 0.00 0.00 0.00 0.00 0.00 0.00 0.00 0.00 0.00 0.00 0.00 0.00 0.00 0.00 0.00 0.00 0.00 0.00 0.00 0.00 0.00 0.00 0.00 0.00 0.00 0.00 0.00 0.00 0.00 0.00 0.00 0.00 0.00 0.00 0.00 0.00 0.00 0.00 0.00
0.01 0.00 0.00 0.00 0.00 0.00 0.00 0.00 0.00 0.00 0.00 0.00 0.00 0.00 0.00 0.00 0.00 0.00 0.00 0.00 0.00 0.00 0.00 0.00 0.00 0.00 0.00 0.00 0.00 0.00 0.00 0.00 0.00 0.00 0.00 0.00 0.00 0.00 0.00 0.00 0.00 0.00 0.00
0.03 0.02 0.02 0.02 0.02 0.02 0.02 0.01 0.01 0.00 0.00 0.00 0.00 0.00 0.00 0.01 0.01 0.00 0.00 0.00 0.00 0.00 0.00 0.00 0.00 0.00 0.00 0.00 0.00 0.00 0.00 0.00 0.00 0.00 0.00 0.00 0.00 0.00 0.00 0.00 0.00 0.00 0.00
0.02 0.02 0.02 0.02 0.03 0.04 0.06 0.07 0.07 0.05 0.04 0.05 0.05 0.04 0.03 0.03 0.02 0.02 0.02 0.01 0.01 0.01 0.01 0.00 0.00 0.00 0.00 0.00 0.00 0.00 0.00 0.00 0.00 0.00 0.00 0.00 0.00 0.00 0.00 0.00 0.00 0.00 0.00
0.02 0.01 0.01 0.01 0.01 0.01 0.02 0.03 0.05 0.07 0.08 0.08 0.07 0.05 0.03 0.03 0.04 0.06 0.06 0.03 0.02 0.01 0.00 0.00 0.00 0.00 0.00 0.00 0.00 0.00 0.00 0.00 0.00 0.00 0.00 0.00 0.00 0.00 0.00 0.00 0.00 0.00 0.00
0.03 0.03 0.03 0.03 0.03 0.02 0.02 0.02 0.02 0.03 0.04 0.05 0.05 0.04 0.02 0.01 0.01 0.02 0.01 0.01 0.02 0.01 0.01 0.00 0.00 0.00 0.00 0.00 0.00 0.00 0.00 0.00 0.00 0.00 0.00 0.00 0.00 0.00 0.00 0.00 0.00 0.00 0.00
0.01 0.02 0.03 0.03 0.03 0.04 0.05 0.05 0.04 0.04 0.04 0.04 0.04 0.04 0.03 0.02 0.03 0.03 0.03 0.04 0.05 0.03 0.02 0.01 0.00 0.00 0.00 0.00 0.00 0.00 0.00 0.00 0.00 0.00 0.00 0.00 0.00 0.00 0.00 0.00 0.00 0.00 0.00
0.01 0.01 0.01 0.02 0.01 0.01 0.01 0.02 0.03 0.04 0.06 0.06 0.07 0.07 0.03 0.04 0.06 0.05 0.06 0.04 0.03 0.04 0.02 0.01 0.00 0.00 0.00 0.00 0.00 0.00 0.00 0.00 0.00 0.00 0.00 0.00 0.00 0.00 0.00 0.00 0.00 0.00 0.00
0.00 0.01 0.02 0.02 0.01 0.01 0.02 0.01 0.02 0.02 0.03 0.04 0.03 0.03 0.05 0.07 0.09 0.08 0.04 0.03 0.03 0.02 0.01 0.00 0.00 0.00 0.00 0.00 0.00 0.00 0.00 0.00 0.00 0.00 0.00 0.00 0.00 0.00 0.00 0.00 0.00 0.00 0.01
0.01 0.01 0.03 0.03 0.02 0.02 0.02 0.02 0.02 0.02 0.03 0.03 0.03 0.03 0.04 0.04 0.03 0.01 0.02 0.03 0.02 0.01 0.00 0.00 0.00 0.00 0.00 0.00 0.00 0.00 0.00 0.00 0.00 0.00 0.00 0.00 0.00 0.00 0.00 0.00 0.00 0.00 0.00
0.03 0.03 0.03 0.03 0.03 0.03 0.03 0.03 0.03 0.03 0.04 0.05 0.04 0.07 0.10 0.05 0.04 0.03 0.03 0.02 0.00 0.00 0.00 0.00 0.00 0.00 0.00 0.00 0.00 0.00 0.00 0.00 0.00 0.00 0.00 0.00 0.00 0.00 0.00 0.00 0.00 0.00 0.00
0.03 0.04 0.03 0.03 0.03 0.03 0.04 0.03 0.03 0.04 0.05 0.04 0.06 0.11 0.07 0.04 0.04 0.03 0.02 0.00 0.00 0.00 0.00 0.00 0.00 0.00 0.00 0.00 0.00 0.00 0.00 0.00 0.00 0.00 0.00 0.00 0.00 0.00 0.00 0.00 0.00 0.00 0.00
0.02 0.02 0.02 0.03 0.03 0.03 0.03 0.04 0.05 0.06 0.05 0.08 0.09 0.04 0.03 0.04 0.03 0.02 0.01 0.00 0.00 0.00 0.00 0.00 0.00 0.00 0.00 0.00 0.00 0.00 0.00 0.00 0.00 0.00 0.00 0.01 0.00 0.00 0.00 0.00 0.00 0.00 0.00
0.02 0.02 0.03 0.03 0.03 0.03 0.04 0.04 0.05 0.05 0.07 0.07 0.05 0.06 0.06 0.04 0.02 0.01 0.00 0.00 0.00 0.00 0.00 0.00 0.00 0.00 0.00 0.00 0.00 0.00 0.00 0.00 0.00 0.00 0.01 0.01 0.00 0.00 0.00 0.00 0.00 0.00 0.00
0.03 0.03 0.03 0.03 0.04 0.04 0.04 0.04 0.05 0.05 0.05 0.06 0.06 0.05 0.04 0.02 0.01 0.00 0.00 0.00 0.00 0.00 0.00 0.00 0.00 0.00 0.00 0.00 0.00 0.00 0.00 0.00 0.00 0.00 0.01 0.00 0.00 0.00 0.00 0.00 0.00 0.00 0.00
MSLP
1005.49 1006.11 1006.39 1006.67 1006.94 1007.60 1008.15 1009.14 1009.71 1010.52 1011.23 1012.12 1013.10 1014.04 1014.99 1015.98 1016.79 1017.72 1018.26 1018.84 1019.21 1020.02 1020.91 1021.35 1021.89 1021.95 1022.49 1022.80 1023.59 1023.83 1024.11 1024.57 1024.47 1023.60 1023.39 1023.10 1023.24 1023.25 1022.90 1022.41 1021.92 1021.55 1020.63
1004.16 1004.69 1005.02 1005.97 1006.57 1007.23 1007.10 1007.49 1008.60 1009.63 1010.39 1011.04 1012.09 1012.80 1013.87 1014.86 1015.64 1016.63 1017.54 1018.40 1018.86 1019.14 1019.82 1020.69 1021.39 1021.65 1021.79 1022.41 1022.97 1023.56 1023.75 1024.11 1024.17 1023.55 1023.41 1023.18 1023.25 1022.76 1022.35 1021.97 1020.94 1020.68 1020.32
1003.73 1003.99 1004.69 1005.41 1006.09 1006.08 1006.00 1006.70 1007.67 1008.49 1009.28 1010.08 1010.91 1011.62 1012.45 1013.46 1014.47 1015.39 1016.42 1017.34 1018.08 1018.15 1018.67 1019.80 1020.55 1021.51 1021.67 1022.00 1022.71 1023.16 1023.48 1023.55 1023.78 1023.67 1023.18 1022.89 1022.44 1021.95 1021.14 1020.60 1019.99 1019.43 1019.39
1003.29 1003.23 1003.48 1003.74 1003.89 1004.61 1005.27 1005.59 1006.41 1007.12 1008.16 1008.84 1009.33 1010.15 1011.01 1012.26 1013.52 1014.44 1015.69 1016.73 1017.80 1018.03 1018.48 1019.15 1019.74 1020.34 1020.77 1021.64 1022.38 1022.59 1023.24 1023.72 1023.66 1023.48 1022.81 1022.56 1021.98 1021.11 1020.58 1019.75 1018.75 1018.94 1018.28
1003.08 1003.11 1002.48 1002.30 1002.94 1003.64 1004.43 1004.49 1005.44 1006.10 1007.15 1007.58 1008.29 1009.52 1010.50 1011.28 1011.91 1013.11 1014.37 1015.71 1017.12 1017.74 1017.91 1018.65 1019.05 1019.17 1019.91 1020.65 1021.21 1021.82 1022.81 1023.24 1023.14 1022.91 1022.35 1021.44 1020.73 1020.37 1020.14 1019.60 1018.71 1017.84 1017.42
1002.22 1002.55 1002.22 1002.26 1002.78 1002.50 1003.26 1003.66 1003.94 1005.21 1006.47 1006.97 1007.72 1008.22 1009.54 1010.11 1010.62 1012.01 1013.39 1014.90 1016.17 1016.93 1017.60 1018.30 1019.04 1019.40 1019.58 1019.78 1020.43 1020.96 1021.89 1022.29 1022.27 1022.34 1021.74 1020.76 1020.18 1020.22 1019.72 1019.59 1018.83 1017.88 1015.88
1002.41 1001.49 1001.32 1001.67 1001.80 1002.73 1002.25 1003.20 1003.33 1004.89 1005.79 1006.00 1006.55 1007.44 1008.49 1009.05 1009.35 1010.91 1012.38 1013.30 1014.61 1015.70 1016.60 1017.25 1018.22 1018.76 1019.12 1019.36 1019.48 1020.21 1020.68 1020.96 1020.96 1021.21 1020.75 1020.43 1019.97 1020.29 1019.82 1019.14 1018.66 1017.70 1016.73
1002.17 1001.69 1001.55 1001.30 1001.45 1001.83 1001.74 1002.10 1002.59 1003.54 1004.37 1005.10 1005.99 1006.65 1007.94 1008.19 1008.43 1010.10 1011.57 1013.02 1013.62 1014.31 1015.33 1016.00 1017.27 1017.94 1018.67 1019.42 1019.61 1020.01 1020.11 1020.42 1021.03 1020.90 1020.54 1020.19 1020.03 1019.56 1019.01 1018.76 1018.27 1017.50 1016.61
1002.39 1002.37 1002.50 1001.80 1001.86 1001.64 1001.77 1002.11 1001.94 1002.82 1003.79 1004.31 1005.18 1005.55 1006.63 1007.78 1008.65 1010.14 1011.23 1012.50 1013.53 1014.08 1015.02 1015.81 1016.72 1017.06 1017.87 1018.33 1018.73 1019.58 1019.46 1020.19 1020.05 1019.41 1019.18 1019.12 1019.17 1018.86 1018.75 1018.55 1018.36 1017.90 1015.80
1003.20 1001.79 1001.87 1001.86 1001.36 1001.55 1001.68 1001.77 1002.18 1003.02 1003.38 1003.94 1004.67 1004.94 1005.50 1006.01 1006.99 1008.63 1010.05 1011.25 1012.70 1013.64 1014.57 1015.30 1015.71 1016.27 1016.78 1017.77 1018.04 1018.75 1019.14 1019.34 1019.03 1019.03 1019.29 1019.03 1019.02 1018.99 1018.93 1018.83 1018.29 1017.87 1016.86
1002.81 1002.97 1001.76 1001.82 1002.04 1001.75 1001.81 1002.07 1002.35 1002.94 1003.69 1003.98 1004.33 1005.23 1006.06 1005.94 1006.71 1007.85 1008.83 1009.97 1011.05 1012.03 1013.18 1014.26 1014.86 1015.71 1016.24 1016.49 1016.71 1017.71 1018.71 1018.62 1018.65 1018.93 1019.36 1018.72 1018.49 1018.30 1018.35 1018.06 1017.78 1017.08 1016.03
1002.64 1003.04 1002.93 1001.63 1001.39 1001.79 1002.38 1002.35 1003.22 1003.55 1003.47 1003.62 1004.24 1005.04 1005.90 1006.41 1006.39 1006.68 1007.77 1009.17 1010.33 1010.92 1011.88 1012.97 1014.13 1014.73 1015.20 1015.47 1015.90 1017.20 1018.23 1018.37 1018.81 1019.40 1019.70 1018.81 1018.43 1017.62 1017.31 1016.98 1016.53 1015.80 1014.99
1002.22 1002.31 1002.35 1002.02 1000.97 1001.39 1001.97 1002.70 1003.32 1003.80 1003.81 1003.60 1004.01 1004.67 1005.85 1006.60 1006.88 1006.84 1007.13 1008.85 1009.76 1010.87 1011.56 1012.31 1013.09 1013.75 1014.23 1014.99 1015.86 1016.72 1017.82 1018.44 1018.94 1019.33 1019.02 1018.16 1017.66 1017.11 1016.58 1016.03 1015.36 1014.70 1013.60
1003.11 1002.17 1001.91 1001.75 1001.15 1001.01 1001.00 1001.34 1002.20 1003.15 1003.31 1003.55 1003.77 1004.23 1005.11 1005.87 1006.05 1006.80 1007.53 1008.27 1009.72 1010.33 1011.19 1012.12 1012.93 1013.23 1014.34 1015.65 1015.96 1016.12 1017.32 1017.96 1018.32 1018.47 1017.96 1017.42 1016.88 1016.42 1015.85 1015.31 1014.54 1013.69 1012.49
1003.47 1001.59 1000.89 1001.05 1000.16 1000.23 1000.31 1000.59 1000.87 1001.07 1000.74 1001.39 1002.19 1002.69 1003.25 1004.19 1004.37 1005.04 1005.97 1007.26 1008.74 1010.14 1011.40 1012.53 1013.32 1014.01 1014.73 1014.94 1015.55 1016.42 1016.74 1017.17 1017.93 1017.67 1017.25 1016.84 1016.01 1015.83 1015.23 1014.36 1013.77 1012.82 1011.68
1003.41 1001.61 1000.75 999.98 999.60 999.48 999.59 999.85 1000.07 1000.56 1000.73 1000.57 1001.26 1001.56 1002.24 1002.81 1003.43 1003.56 1004.39 1006.06 1007.60 1008.92 1010.86 1011.74 1012.73 1013.47 1014.39 1015.16 1015.79 1016.23 1016.31 1016.94 1017.26 1016.99 1016.81 1015.98 1015.39 1014.86 1014.32 1013.48 1013.01 1012.02 1010.32
1002.46 1001.18 999.79 999.06 998.50 998.87 998.62 998.77 998.80 999.41 999.67 1000.04 1000.65 1000.98 1001.55 1002.11 1002.91 1003.84 1004.15 1004.88 1006.42 1008.50 1009.33 1010.39 1012.37 1013.45 1014.28 1015.05 1015.82 1015.94 1015.91 1016.94 1016.85 1016.52 1016.59 1015.38 1014.78 1014.57 1013.83 1012.87 1011.71 1010.65 1008.87
1001.37 1000.17 999.19 997.83 997.54 997.73 997.81 997.05 998.22 998.66 998.74 998.88 999.63 1000.18 1001.08 1001.82 1002.46 1003.08 1004.48 1005.71 1006.88 1009.25 1009.72 1010.87 1011.70 1012.61 1013.87 1015.11 1015.91 1015.40 1016.27 1016.66 1016.50 1016.53 1015.96 1015.10 1014.56 1014.19 1013.07 1012.07 1010.86 1009.62 1007.95
1000.01 998.72 997.85 996.70 996.28 996.99 996.74 996.20 997.47 998.07 998.36 998.55 998.87 999.65 1000.86 1001.43 1002.14 1002.81 1003.41 1004.65 1007.14 1008.83 1010.28 1011.77 1011.78 1012.47 1013.36 1014.25 1015.08 1016.28 1016.42 1016.57 1016.31 1016.58 1015.41 1014.33 1014.30 1013.70 1012.46 1011.15 1009.94 1008.69 1007.50
998.94 997.88 997.03 996.15 995.39 995.59 995.92 996.18 996.71 997.59 997.60 997.73 997.93 998.86 1000.01 1000.91 1001.63 1002.50 1003.87 1005.37 1006.63 1008.66 1010.47 1011.75 1012.61 1013.14 1013.09 1013.91 1014.89 1016.29 1016.44 1016.02 1016.02 1015.94 1014.56 1013.99 1013.66 1013.04 1011.76 1010.14 1009.20 1007.91 1006.47
997.47 996.02 994.85 994.08 994.45 995.12 995.42 995.83 996.34 996.60 996.69 996.95 997.46 998.55 999.25 1000.02 1001.16 1002.78 1004.60 1005.91 1006.89 1008.77 1010.19 1011.33 1012.43 1012.85 1013.63 1014.37 1014.94 1015.81 1015.89 1015.63 1015.46 1014.68 1013.85 1013.33 1012.79 1011.97 1010.83 1009.46 1008.19 1007.09 1005.65
995.55 994.38 993.73 993.87 994.28 994.79 995.13 995.62 995.96 996.23 996.62 997.19 997.69 998.82 999.52 1000.84 1002.71 1003.92 1005.31 1006.40 1007.50 1008.96 1010.06 1010.95 1011.98 1012.91 1013.55 1013.97 1014.32 1014.75 1015.07 1014.91 1014.26 1013.84 1013.31 1012.65 1011.89 1011.00 1009.89 1008.42 1007.35 1006.11 1004.76
994.94 994.30 994.17 994.32 994.74 995.09 995.26 995.62 995.94 996.32 996.88 997.87 998.51 999.20 1000.71 1002.11 1003.77 1005.15 1006.28 1007.66 1008.46 1009.40 1010.60 1011.16 1012.10 1012.82 1013.31 1013.68 1013.81 1013.85 1013.90 1013.42 1013.21 1013.11 1012.57 1011.88 1010.98 1010.06 1008.87 1007.52 1006.52 1005.25 1004.20
995.83 995.39 995.16 995.10 995.19 995.50 995.98 996.42 996.87 997.34 997.63 998.40 999.78 1001.20 1002.33 1003.22 1004.66 1006.10 1007.31 1008.26 1009.02 1009.95 1010.63 1011.50 1011.96 1012.26 1012.96 1013.26 1013.17 1013.03 1012.87 1012.57 1012.46 1011.92 1011.62 1010.85 1009.94 1008.88 1007.85 1006.76 1005.91 1004.84 1003.55
996.88 996.53 996.37 996.32 996.40 996.64 996.94 997.30 997.75 998.38 999.06 1000.25 1001.34 1002.35 1003.31 1004.61 1005.79 1006.94 1007.87 1008.75 1009.53 1010.22 1010.86 1011.28 1011.75 1012.01 1012.06 1011.97 1011.99 1011.99 1011.84 1011.35 1011.04 1010.60 1010.19 1009.41 1008.29 1007.80 1006.92 1006.15 1005.43 1004.27 1002.64
997.87 997.62 997.54 997.52 997.63 997.85 998.15 998.59 999.23 999.85 1000.55 1001.51 1002.40 1003.30 1004.29 1005.39 1006.56 1007.66 1008.57 1009.22 1009.72 1010.35 1010.79 1011.05 1011.23 1011.27 1011.23 1011.17 1011.23 1011.02 1010.52 1009.92 1009.44 1008.65 1008.10 1007.82 1007.48 1006.88 1006.11 1005.68 1004.94 1003.74 1002.06
Thickness
5605 5599 5599 5596 5595 5587 5582 5572 5567 5560 5553 5545 5538 5530 5522 5512 5505 5498 5494 5489 5486 5478 5468 5464 5458 5457 5451 5446 5438 5434 5429 5424 5424 5430 5427 5424 5418 5413 5412 5413 5412 5411 5417
5597 5595 5593 5585 5580 5574 5576 5571 5561 5552 5544 5538 5530 5525 5515 5506 5499 5491 5482 5474 5470 5468 5461 5453 5446 5442 5440 5433 5425 5418 5413 5407 5407 5410 5408 5406 5399 5401 5398 5397 5401 5400 5399
5581 5580 5576 5571 5565 5564 5565 5560 5552 5541 5535 5529 5523 5518 5511 5502 5492 5484 5474 5466 5460 5460 5454 5443 5436 5425 5422 5418 5409 5403 5399 5395 5389 5390 5391 5388 5388 5383 5383 5382 5386 5388 5384
5561 5564 5566 5566 5564 5558 5551 5550 5543 5536 5528 5522 5520 5512 5505 5494 5482 5475 5463 5453 5444 5441 5436 5430 5424 5417 5412 5402 5394 5391 5383 5374 5371 5369 5374 5371 5369 5368 5366 5369 5378 5369 5371
5549 5551 5560 5560 5555 5548 5540 5540 5532 5526 5518 5514 5508 5499 5491 5484 5479 5467 5455 5444 5431 5425 5423 5416 5411 5409 5401 5393 5387 5378 5366 5358 5354 5353 5355 5360 5356 5353 5347 5349 5354 5358 5357
5537 5535 5541 5541 5534 5536 5530 5529 5527 5514 5504 5500 5496 5492 5479 5475 5471 5458 5445 5431 5420 5414 5406 5398 5391 5387 5386 5383 5375 5368 5356 5346 5341 5337 5341 5347 5343 5332 5330 5326 5330 5334 5348
5509 5524 5525 5520 5521 5513 5521 5508 5509 5496 5488 5488 5484 5477 5469 5464 5461 5447 5434 5424 5414 5404 5397 5390 5380 5375 5369 5367 5366 5356 5348 5342 5337 5329 5328 5326 5327 5314 5311 5310 5309 5313 5315
5487 5493 5494 5500 5501 5497 5500 5497 5494 5487 5479 5473 5467 5461 5451 5451 5447 5434 5422 5408 5404 5398 5389 5383 5370 5362 5354 5347 5344 5337 5331 5322 5312 5309 5308 5305 5300 5296 5293 5289 5285 5286 5290
5457 5458 5459 5469 5472 5477 5476 5473 5477 5470 5464 5460 5455 5451 5443 5433 5426 5415 5406 5395 5385 5382 5374 5366 5355 5352 5343 5337 5330 5320 5317 5303 5299 5298 5295 5290 5285 5279 5269 5266 5257 5255 5268
5423 5437 5438 5443 5452 5453 5454 5455 5453 5446 5446 5445 5440 5439 5433 5429 5421 5410 5400 5388 5375 5366 5360 5351 5346 5337 5330 5321 5316 5306 5297 5293 5290 5282 5274 5269 5265 5257 5245 5238 5236 5229 5229
5406 5403 5414 5419 5422 5427 5430 5431 5430 5428 5423 5424 5424 5416 5409 5412 5405 5398 5392 5380 5370 5361 5350 5338 5332 5323 5316 5312 5307 5294 5283 5279 5272 5263 5253 5254 5248 5242 5234 5225 5219 5214 5214
5386 5381 5384 5396 5402 5402 5399 5400 5397 5399 5405 5407 5403 5397 5390 5387 5387 5389 5378 5368 5356 5349 5340 5329 5318 5313 5306 5300 5293 5279 5267 5261 5250 5240 5229 5230 5227 5227 5220 5213 5207 5204 5201
5370 5369 5370 5374 5385 5383 5379 5374 5372 5374 5378 5382 5382 5380 5370 5366 5364 5366 5366 5353 5341 5329 5323 5316 5308 5301 5294 5284 5274 5263 5249 5239 5229 5220 5216 5215 5213 5210 5204 5200 5197 5190 5193
5337 5349 5350 5353 5362 5366 5371 5370 5364 5358 5360 5362 5362 5362 5357 5351 5348 5347 5343 5335 5323 5317 5310 5299 5291 5286 5273 5258 5252 5248 5234 5224 5217 5209 5206 5202 5201 5198 5193 5185 5183 5179 5182
5306 5327 5336 5335 5348 5351 5354 5354 5354 5356 5362 5360 5355 5352 5350 5345 5346 5341 5336 5326 5313 5298 5284 5274 5265 5258 5249 5245 5234 5223 5219 5212 5201 5195 5192 5188 5189 5186 5182 5176 5170 5168 5165
5274 5293 5306 5319 5328 5334 5336 5336 5338 5337 5340 5346 5342 5341 5339 5337 5333 5333 5329 5315 5304 5290 5268 5258 5251 5244 5234 5224 5214 5206 5204 5195 5187 5185 5178 5177 5178 5176 5173 5168 5159 5155 5157
5244 5268 5287 5298 5311 5313 5318 5322 5325 5319 5324 5327 5325 5326 5324 5323 5316 5309 5308 5302 5290 5274 5261 5253 5238 5227 5216 5206 5196 5191 5189 5176 5174 5171 5165 5168 5166 5160 5157 5156 5155 5149 5152
5215 5237 5256 5281 5289 5293 5299 5310 5300 5299 5304 5308 5306 5308 5305 5302 5297 5288 5281 5271 5265 5246 5235 5227 5220 5210 5199 5188 5180 5180 5168 5161 5159 5155 5154 5156 5153 5146 5146 5145 5144 5139 5139
5203 5218 5234 5253 5267 5266 5274 5284 5278 5277 5279 5284 5287 5286 5282 5279 5273 5270 5266 5262 5238 5216 5206 5196 5197 5190 5182 5174 5169 5155 5149 5146 5146 5140 5142 5148 5140 5134 5135 5135 5134 5130 5123
5186 5200 5213 5229 5243 5246 5249 5253 5255 5253 5259 5265 5268 5264 5261 5256 5253 5250 5241 5226 5212 5196 5182 5176 5169 5164 5164 5159 5149 5139 5135 5136 5135 5131 5138 5137 5130 5123 5125 5128 5122 5118 5116
5176 5194 5210 5223 5220 5220 5222 5227 5230 5234 5240 5245 5244 5239 5239 5236 5234 5218 5204 5195 5187 5175 5168 5159 5155 5152 5144 5138 5134 5126 5125 5126 5126 5128 5130 5127 5121 5118 5117 5117 5115 5110 5106
5183 5196 5205 5204 5204 5204 5207 5209 5212 5216 5218 5217 5217 5213 5212 5203 5194 5186 5179 5172 5166 5157 5153 5150 5143 5137 5133 5128 5124 5121 5118 5118 5121 5120 5119 5117 5113 5110 5110 5111 5107 5103 5100
5178 5187 5190 5191 5191 5192 5195 5197 5199 5200 5198 5192 5190 5192 5186 5176 5168 5162 5157 5149 5145 5140 5136 5134 5129 5124 5121 5118 5117 5116 5114 5117 5115 5111 5111 5108 5106 5103 5103 5104 5099 5095 5091
5160 5167 5173 5177 5179 5179 5177 5177 5178 5175 5178 5177 5169 5163 5158 5155 5149 5142 5137 5134 5130 5124 5122 5118 5116 5115 5111 5109 5110 5110 5110 5109 5106 5106 5102 5100 5098 5096 5096 5094 5087 5084 5083
5145 5151 5154 5157 5159 5161 5161 5161 5161 5159 5157 5149 5145 5142 5139 5132 5128 5125 5123 5119 5114 5111 5108 5108 5106 5106 5106 5106 5105 5104 5103 5103 5102 5099 5096 5093 5094 5088 5087 5082 5075 5076 5080
5132 5137 5140 5143 5143 5144 5145 5144 5141 5138 5136 5132 5129 5126 5122 5117 5113 5109 5105 5103 5102 5100 5100 5100 5100 5101 5101 5100 5098 5097 5097 5097 5095 5095 5092 5087 5081 5079 5076 5069 5065 5068 5074